SV2MIY messages


fromtotime message
SV2MIY WA1GOV-10 01/02 18:18:38z Send another ISS{O
SV2MIY WA1GOV-10 01/02 18:17:43z Send another ISSO
WA1GOV-10 SV2MIY 01/02 18:15:03z Reply ISS over KN10CM AOS 02Jan23 20:49 UTC AZ 156 MaxEL/AZ 3/130
SV2MIY WA1GOV-10 12/30 15:12:17z Send another ISS{N
SV2MIY WA1GOV-10 12/30 15:11:23z Send another ISSN
WA1GOV-10 SV2MIY 12/30 15:10:05z Reply ISS over KN10CM AOS 30Dec22 23:11 UTC AZ 206 MaxEL/AZ 25/150
WXYO SV2MIY 12/23 22:48:42z Reply LGTS 232220Z VRB03KT 9999 FEW020 04/03 Q1017 NOSIG{RK
WXYO SV2MIY 12/23 22:46:39z Reply LGTS 232220Z VRB03KT 9999 FEW020 04/03 Q1017 NOSIG{RJ
WXYO SV2MIY 12/23 22:45:38z Reply LGTS 232220Z VRB03KT 9999 FEW020 04/03 Q1017 NOSIG{RI
SV2MIY WXYO 12/23 22:45:37z Send another LGTSM
SV2MIY WXYO 12/23 22:45:32z Send another LGTS{M
WXYO SV2MIY 12/23 09:07:52z Reply m,clouds 100 %{QF
WXYO SV2MIY 12/23 09:07:47z Reply Véroia in 24h overcast clouds T:11.2C,W32@0.38,H55,P1018hPa,rain 0m{QE
WXYO SV2MIY 12/23 09:07:02z Reply m,clouds 100 %{QD
WXYO SV2MIY 12/23 09:06:57z Reply Véroia in 24h overcast clouds T:11.2C,W32@0.38,H55,P1018hPa,rain 0m{QC
WXYO SV2MIY 12/23 09:06:52z Reply m,clouds 100 %{QB
SV2MIY WXYO 12/23 09:06:47z Send another 24L
WXYO SV2MIY 12/23 09:06:47z Reply Véroia in 24h overcast clouds T:11.2C,W32@0.38,H55,P1018hPa,rain 0m{QA
SV2MIY WXYO 12/23 09:06:41z Send another 24{L
WXYO SV2MIY 12/23 09:06:08z Reply m,clouds 100 %{PZ
WXYO SV2MIY 12/23 09:06:03z Reply Véroia in 24h overcast clouds T:11.2C,W32@0.38,H55,P1018hPa,rain 0m{PY
WXYO SV2MIY 12/23 09:05:50z Reply m,clouds 100 %{PX
WXYO SV2MIY 12/23 09:05:45z Reply Véroia in 24h overcast clouds T:11.2C,W32@0.38,H55,P1018hPa,rain 0m{PW
WXYO SV2MIY 12/23 09:04:47z Reply m,clouds 100 %{PV
WXYO SV2MIY 12/23 09:04:42z Reply Véroia in 24h overcast clouds T:11.2C,W32@0.38,H55,P1018hPa,rain 0m{PU
WXYO SV2MIY 12/23 09:03:45z Reply m,clouds 100 %{PT
WXYO SV2MIY 12/23 09:03:40z Reply Véroia in 24h overcast clouds T:11.2C,W32@0.38,H55,P1018hPa,rain 0m{PS
WXYO SV2MIY 12/12 17:52:36z Reply LGTS 051650Z VRB02KT 9999 FEW010 SCT025 12/11 Q1025 NOSIG{AW
WXYO SV2MIY 12/12 17:51:31z Reply %{AV
WXYO SV2MIY 12/12 17:51:26z Reply in h few clouds T:18.38C,W248@3.44,H57,P1014hPa,rain 0mm,clouds 21{AU
WXYO SV2MIY 12/12 17:50:26z Reply %{AT
WXYO SV2MIY 12/12 17:50:21z Reply in h few clouds T:18.38C,W248@3.44,H57,P1014hPa,rain 0mm,clouds 21{AS
WXYO SV2MIY 12/12 17:49:46z Reply %{AR
WXYO SV2MIY 12/12 17:49:41z Reply in h few clouds T:18.38C,W248@3.44,H57,P1014hPa,rain 0mm,clouds 21{AQ
WXYO SV2MIY 12/12 17:49:21z Reply LGTS 051650Z VRB02KT 9999 FEW010 SCT025 12/11 Q1025 NOSIG{AP
SV2MIY WXYO 12/12 17:49:16z Send another LGTS{K
SV2MIY WXYO 12/12 17:49:15z Send another KM10CMA
WXYO SV2MIY 12/12 17:49:14z Reply LGKZ 121720Z AUTO VRB02KT //// -RA ////// 10/05 Q1005 RE//{AO
WXYO SV2MIY 12/12 17:49:09z Reply %{AN
WXYO SV2MIY 12/12 17:49:04z Reply in h few clouds T:18.38C,W248@3.44,H57,P1014hPa,rain 0mm,clouds 21{AM
WXYO SV2MIY 12/12 17:48:12z Reply LGKZ 121720Z AUTO VRB02KT //// -RA ////// 10/05 Q1005 RE//{AL
WXYO SV2MIY 12/12 17:48:06z Reply LGKZ 121720Z AUTO VRB02KT //// -RA ////// 10/05 Q1005 RE//{AK
WXYO SV2MIY 12/12 17:47:02z Reply LGKZ 121720Z AUTO VRB02KT //// -RA ////// 10/05 Q1005 RE//{AJ
WXYO SV2MIY 12/12 17:46:07z Reply LGKZ 121720Z AUTO VRB02KT //// -RA ////// 10/05 Q1005 RE//{AI
WXYO SV2MIY 12/12 17:46:01z Reply LGKZ 121720Z AUTO VRB02KT //// -RA ////// 10/05 Q1005 RE//{AH
SV2MIY WXYO 12/12 17:46:00z Send another metarJ
SV2MIY WXYO 12/12 17:45:55z Send another metar{J
WXYO SV2MIY 12/06 19:46:20z Reply 0mm,clouds 93 %{AD
WXYO SV2MIY 12/06 19:46:15z Reply Véroia in 24h overcast clouds T:10.61C,W215@0.29,H92,P1016hPa,rain{AC
WXYO SV2MIY 12/06 19:45:20z Reply 0mm,clouds 93 %{AB
WXYO SV2MIY 12/06 19:45:15z Reply Véroia in 24h overcast clouds T:10.61C,W215@0.29,H92,P1016hPa,rain{AA
SV2MIY WXYO 12/06 19:45:15z Send another 24I
SV2MIY WXYO 12/06 19:45:08z Send another 24{I
WXYO SV2MIY 12/05 20:49:38z Reply LGTS 052020Z VRB02KT 9999 FEW010 SCT025 12/12 Q1025 NOSIG{UH
WXYO SV2MIY 12/05 20:49:31z Reply LGTS 052020Z VRB02KT 9999 FEW010 SCT025 12/12 Q1025 NOSIG{UG
SV2MIY WXYO 12/05 20:49:25z Send another LGTS{H
WXYO SV2MIY 12/05 14:50:02z Reply LGTS 051420Z VRB01KT 9999 FEW010 SCT025 OVC050 12/10 Q1025 NOSIG{UD
SV2MIY WXYO 12/05 14:49:56z Send another LGTS{E
WXYO SV2MIY 12/05 14:49:07z Reply LGTS 051420Z VRB01KT 9999 FEW010 SCT025 OVC050 12/10 Q1025 NOSIG{UA
SV2MIY WXYO 12/05 14:49:03z Send another LGTSE
WXYO SV2MIY 12/05 14:49:01z Reply LGTS 051420Z VRB01KT 9999 FEW010 SCT025 OVC050 12/10 Q1025 NOSIG{TZ
WXYO SV2MIY 12/05 14:48:04z Reply LGTS 051420Z VRB01KT 9999 FEW010 SCT025 OVC050 12/10 Q1025 NOSIG{TW
WXYO SV2MIY 12/05 14:47:59z Reply LGTS 051420Z VRB01KT 9999 FEW010 SCT025 OVC050 12/10 Q1025 NOSIG{TV
WXYO SV2MIY 12/05 14:46:58z Reply LGTS 051420Z VRB01KT 9999 FEW010 SCT025 OVC050 12/10 Q1025 NOSIG{TS
WXYO SV2MIY 12/04 15:48:10z Reply mm,clouds 99 %{SV
WXYO SV2MIY 12/04 15:48:05z Reply Véroia in 24h overcast clouds T:10.29C,W82@0.96,H96,P1025hPa,rain 0{SU
SV2MIY WXYO 12/04 15:47:59z Send another 24{G
WXYO SV2MIY 12/04 15:47:34z Reply mm,clouds 99 %{ST
WXYO SV2MIY 12/04 15:47:29z Reply Véroia in 24h overcast clouds T:10.29C,W82@0.96,H96,P1025hPa,rain 0{SS
WXYO SV2MIY 12/04 15:46:43z Reply mm,clouds 99 %{SR
WXYO SV2MIY 12/04 15:46:38z Reply Véroia in 24h overcast clouds T:10.29C,W82@0.96,H96,P1025hPa,rain 0{SQ
WXYO SV2MIY 12/04 15:46:33z Reply mm,clouds 99 %{SP
SV2MIY WXYO 12/04 15:46:31z Send another 24G
WXYO SV2MIY 12/04 15:46:28z Reply Véroia in 24h overcast clouds T:10.29C,W82@0.96,H96,P1025hPa,rain 0{SO
WXYO SV2MIY 12/04 15:45:31z Reply mm,clouds 99 %{SN
WXYO SV2MIY 12/04 15:45:26z Reply Véroia in 24h overcast clouds T:10.29C,W82@0.96,H96,P1025hPa,rain 0{SM
WXYO SV2MIY 12/04 15:44:30z Reply mm,clouds 99 %{SL
WXYO SV2MIY 12/04 15:44:25z Reply Véroia in 24h overcast clouds T:10.29C,W82@0.96,H96,P1025hPa,rain 0{SK
WXYO SV2MIY 12/01 14:46:09z Reply 0mm,clouds 27 %{QG
WXYO SV2MIY 12/01 14:46:04z Reply Véroia in 24h scattered clouds T:13.49C,W77@1.67,H69,P1020hPa,rain{QF
WXYO SV2MIY 12/01 14:45:05z Reply 0mm,clouds 27 %{QE
WXYO SV2MIY 12/01 14:45:00z Reply Véroia in 24h scattered clouds T:13.49C,W77@1.67,H69,P1020hPa,rain{QD
WXYO SV2MIY 12/01 14:42:57z Reply 0mm,clouds 27 %{QC
WXYO SV2MIY 12/01 14:42:52z Reply Véroia in 24h scattered clouds T:13.49C,W77@1.67,H69,P1020hPa,rain{QB
WXYO SV2MIY 11/30 22:09:32z Reply ,clouds 100 %{OF
WXYO SV2MIY 11/30 22:09:27z Reply Véroia in 24h light rain T:9.39C,W288@1.15,H91,P1018hPa,rain 0.58mm{OE
SV2MIY WXYO 11/30 22:09:20z Send another 24{F
WXYO SV2MIY 11/27 10:24:13z Reply LGTS 270950Z 10009KT 9999 SCT025 13/01 Q1025 NOSIG{KQ
WXYO SV2MIY 11/27 10:23:11z Reply LGTS 270950Z 10009KT 9999 SCT025 13/01 Q1025 NOSIG{KP
WXYO SV2MIY 11/27 10:22:10z Reply LGTS 270950Z 10009KT 9999 SCT025 13/01 Q1025 NOSIG{KO
WXYO SV2MIY 11/27 10:21:08z Reply LGTS 270950Z 10009KT 9999 SCT025 13/01 Q1025 NOSIG{KN
WXYO SV2MIY 11/27 10:20:13z Reply LGTS 270950Z 10009KT 9999 SCT025 13/01 Q1025 NOSIG{KM
WXYO SV2MIY 11/27 10:20:06z Reply LGTS 270950Z 10009KT 9999 SCT025 13/01 Q1025 NOSIG{KL
WXYO SV2MIY 11/27 10:14:51z Reply ,clouds 100 %{KK
WXYO SV2MIY 11/27 10:14:46z Reply Véroia in 12h light rain T:6.39C,W158@0.62,H89,P1023hPa,rain 0.87mm{KJ
SV2MIY WXYO 11/27 10:14:41z Send another 12{D
WXYO SV2MIY 11/27 10:13:50z Reply ,clouds 100 %{KI
WXYO SV2MIY 11/27 10:13:45z Reply Véroia in 12h light rain T:6.39C,W158@0.62,H89,P1023hPa,rain 0.87mm{KH
WXYO SV2MIY 11/27 10:12:45z Reply ,clouds 100 %{KG
WXYO SV2MIY 11/27 10:12:40z Reply Véroia in 12h light rain T:6.39C,W158@0.62,H89,P1023hPa,rain 0.87mm{KF